Temperature
17 16 16 16 16 15 15 15 15 15 15 15 15 15 15 15 15 14 14 14 14 14 14 14 14 14 14 14 14 14 14 13 13 12 12 11 11 11 11 11 11 11 10
16 16 16 16 16 16 16 16 16 15 15 15 15 15 15 15 15 15 14 14 14 14 14 14 14 14 14 14 14 14 13 13 13 13 12 12 11 11 11 11 11 11 10
16 16 16 16 15 15 15 16 15 15 15 15 15 15 15 15 15 15 15 14 14 14 14 14 14 14 14 14 14 14 13 13 13 13 12 12 11 11 11 11 11 10 10
16 16 16 15 15 15 15 15 15 15 15 15 15 15 15 15 15 15 14 14 14 14 14 14 14 14 14 14 14 13 13 13 13 13 12 12 11 11 11 11 10 10 10
16 16 15 15 15 15 15 15 15 15 15 15 15 15 15 15 15 14 14 14 14 14 14 14 14 14 14 14 13 13 13 13 13 12 12 12 11 11 11 11 10 10 10
16 16 15 15 15 15 15 15 15 15 15 15 15 15 14 14 14 14 14 14 14 14 14 14 14 13 13 13 13 13 13 13 13 13 12 12 12 11 11 11 10 10 10
15 15 15 15 15 15 15 15 15 15 15 15 15 14 14 14 14 14 14 14 14 14 14 14 14 13 13 13 13 13 13 13 12 12 12 12 12 11 11 11 10 10 10
15 15 15 15 15 15 15 15 15 15 15 15 14 14 14 14 14 14 14 14 14 14 14 13 13 13 13 13 13 13 13 13 12 12 12 12 12 11 11 11 10 10 10
15 15 15 15 15 15 15 15 15 15 15 14 14 14 14 14 14 14 14 14 14 13 13 13 13 13 13 13 13 13 13 13 12 12 12 12 11 11 11 10 10 10 10
15 15 15 15 14 15 15 14 14 14 14 14 14 14 14 14 14 14 14 13 13 13 13 13 13 13 13 13 13 13 13 13 12 12 12 12 11 11 11 10 10 10 10
14 14 14 14 14 14 14 14 14 14 14 14 14 14 14 14 14 14 13 13 13 13 13 13 13 13 12 12 12 12 12 12 12 12 12 11 11 11 11 10 10 10 9
14 14 14 14 14 14 14 14 14 14 14 14 14 14 14 13 13 13 13 13 13 13 13 13 13 12 12 12 12 12 12 12 12 11 11 11 11 11 10 10 10 10 9
14 14 14 14 14 14 14 14 14 14 14 14 14 14 14 13 13 13 13 13 13 13 12 12 12 12 12 12 12 12 11 11 11 11 11 11 11 10 10 10 10 9 9
14 14 14 14 14 14 14 14 14 14 13 13 13 13 14 13 13 13 13 13 12 12 12 12 12 12 11 11 11 11 11 11 11 11 10 10 10 10 9 9 9 9 9
13 14 14 14 14 13 13 13 13 13 13 13 13 13 14 14 14 13 13 13 12 12 12 12 12 12 11 11 11 11 11 10 10 10 10 10 10 9 9 9 9 9 9
13 13 13 13 13 13 13 13 13 13 13 13 13 13 13 13 13 13 13 12 12 12 12 11 12 11 11 11 11 10 10 10 10 10 10 10 9 9 9 9 8 8 8
13 13 13 13 13 13 13 13 13 13 13 13 13 13 13 13 13 13 13 12 12 12 11 11 11 11 11 11 11 10 10 10 10 9 9 9 9 9 8 8 8 8 7
13 13 13 13 13 13 13 13 13 13 13 13 13 13 13 13 12 12 12 12 12 12 11 11 11 11 11 10 10 10 10 10 9 9 9 9 8 8 8 8 7 7 7
12 12 12 12 13 13 12 12 12 12 12 12 12 12 12 12 12 12 12 12 12 12 11 11 11 11 10 10 10 10 10 9 9 9 9 8 8 8 7 7 7 7 6
12 12 12 12 12 12 12 12 12 12 12 12 12 12 12 12 12 12 11 11 11 11 11 11 11 11 10 10 10 10 9 9 9 9 8 8 8 7 7 7 7 6 6
12 12 12 12 11 12 12 12 12 12 12 12 12 12 12 12 12 12 11 11 11 11 11 11 11 10 10 10 10 9 9 9 8 8 8 8 7 7 7 6 6 6 5
11 11 11 11 11 11 11 11 11 11 11 12 12 12 11 11 11 11 11 11 11 11 11 11 10 10 10 10 9 9 9 8 8 8 8 7 7 7 6 6 6 5 5
10 11 11 10 10 10 10 11 11 11 11 11 11 11 11 11 11 11 11 11 11 10 10 10 10 10 10 9 9 9 9 8 8 8 7 7 7 7 6 6 6 5 5
10 10 10 10 10 10 10 10 10 10 10 11 11 11 11 11 11 11 11 10 10 10 10 10 10 9 9 9 9 8 8 8 8 7 7 7 7 6 6 6 5 5 5
9 9 9 9 9 9 9 10 10 10 10 10 10 10 10 10 10 10 10 10 10 9 9 9 9 9 9 9 8 8 8 8 7 7 7 7 6 6 6 6 5 5 4
9 9 9 9 9 9 9 9 9 9 9 10 9 9 9 10 10 10 10 9 9 9 9 9 9 9 8 8 8 8 8 7 7 7 7 6 6 6 6 5 5 4 4
Wind_Speed
5 5 5 5 5 5 4 4 4 4 4 4 5 5 4 4 4 5 4 4 4 3 3 4 3 3 3 3 3 3 3 4 4 1 1 1 2 3 4 6 6 6 7
4 5 6 5 5 5 4 4 4 4 4 4 4 5 4 4 5 5 5 5 5 5 4 4 3 4 4 3 3 4 3 3 4 4 1 1 2 2 3 4 4 5 5
4 4 4 5 5 5 5 4 4 5 4 4 4 5 5 4 4 5 5 5 5 5 5 5 4 5 4 3 4 4 3 4 3 5 3 1 1 2 3 3 4 3 4
4 5 4 5 6 6 5 4 4 5 5 5 4 4 4 4 4 4 5 5 4 4 4 4 5 5 5 5 4 5 5 5 5 5 3 2 1 2 2 2 1 2 2
5 5 5 4 4 5 5 5 5 5 5 4 4 4 4 4 4 5 5 5 5 4 3 4 4 5 7 6 5 5 6 5 5 4 3 2 2 2 2 2 2 1 2
5 5 4 4 4 5 5 5 5 5 4 4 5 5 4 4 6 7 7 5 5 5 4 3 3 4 5 6 7 8 9 7 6 5 3 4 3 3 3 3 3 2 1
5 5 4 4 5 6 6 6 5 5 5 4 4 4 4 4 7 8 9 6 5 5 4 4 3 3 4 4 4 6 6 7 8 7 6 6 5 6 5 4 3 3 2
5 4 4 5 5 5 6 6 5 5 5 5 4 5 4 4 7 8 9 6 4 4 4 4 4 3 4 5 5 4 2 2 4 5 6 6 5 6 6 5 4 3 1
5 5 5 5 5 6 7 6 5 5 5 4 5 5 5 5 7 8 9 5 4 3 3 4 4 4 6 8 6 5 2 1 2 4 5 4 5 8 9 6 4 3 1
6 6 5 6 6 6 7 6 4 5 5 5 4 5 6 5 7 9 10 5 4 3 2 3 5 6 7 9 6 6 4 2 2 3 3 3 4 6 8 6 5 4 2
5 4 5 5 6 5 5 5 5 5 5 5 4 4 4 5 7 9 9 5 5 4 3 2 3 7 7 8 7 5 6 5 3 3 3 3 3 3 3 3 4 4 4
5 5 4 5 4 4 5 5 5 6 6 5 4 3 3 4 5 7 9 8 7 5 4 4 4 7 8 8 6 6 7 6 4 4 3 2 1 1 1 2 3 3 2
5 5 4 4 4 5 5 6 5 5 5 5 5 4 4 3 4 7 8 8 8 5 4 6 6 7 7 5 6 8 7 4 4 3 3 2 1 2 2 3 3 4 4
6 5 5 5 4 4 4 5 6 6 5 5 5 5 4 3 4 4 4 5 6 4 3 5 6 6 5 5 5 4 4 4 4 4 3 2 1 2 1 1 1 1 1
6 5 5 5 5 5 4 4 6 6 7 8 7 6 6 6 7 8 7 5 5 5 5 3 3 3 3 2 2 3 3 3 3 2 3 3 2 2 1 1 1 1 1
6 5 5 4 4 5 4 3 3 4 6 7 7 7 6 6 8 9 10 9 10 11 7 4 4 4 5 5 4 3 3 3 3 3 3 3 3 3 2 1 1 1 2
7 6 5 5 5 5 5 5 4 2 2 4 6 7 7 7 9 10 10 9 10 11 5 5 5 6 5 5 5 4 4 4 3 3 3 3 3 3 2 2 2 1 1
6 7 6 6 6 6 6 6 5 5 4 3 4 6 7 8 9 10 10 9 6 6 4 5 6 5 5 5 5 4 4 3 3 4 3 3 4 3 3 3 3 3 3
5 5 5 5 5 5 5 5 5 6 5 4 2 3 5 7 8 9 10 6 7 7 6 5 5 5 5 5 5 5 4 4 4 4 4 4 4 4 4 4 4 4 3
5 6 6 5 5 5 5 5 5 6 6 5 5 4 4 4 4 5 6 5 6 6 6 6 5 6 6 5 5 5 4 4 5 5 4 4 4 4 5 5 4 4 3
4 5 6 5 5 5 5 6 6 6 6 6 5 6 8 7 7 7 7 7 7 7 6 6 6 6 5 5 5 6 6 5 5 5 5 5 5 4 4 4 4 4 3
3 4 5 5 5 5 5 5 5 5 6 6 4 5 9 6 5 6 6 6 6 5 6 6 6 6 6 6 6 6 6 6 5 5 5 5 5 5 4 4 4 4 4
3 4 4 4 4 4 4 4 5 5 6 6 5 5 6 6 6 6 6 6 5 5 6 6 6 5 6 7 7 7 7 7 7 7 6 5 5 5 5 5 5 5 5
3 4 4 4 4 4 4 4 5 5 6 6 6 6 6 7 6 6 6 5 5 5 5 6 6 7 7 7 8 9 9 9 9 9 9 7 6 5 5 5 5 6 5
3 4 4 4 5 5 5 5 4 5 5 6 6 6 6 6 6 6 5 5 6 5 6 6 6 7 8 9 9 9 11 11 11 10 9 8 6 6 5 5 5 5 5
4 4 4 4 4 5 5 5 5 5 5 5 6 6 6 6 6 6 5 5 5 5 5 6 7 7 8 9 10 11 11 12 12 11 10 8 6 6 6 5 6 5 5
Wind_Direction
192 189 182 182 182 175 180 190 187 184 176 174 175 168 169 171 167 164 169 160 154 150 147 148 153 143 137 136 131 130 129 129 139 143 83 75 83 91 84 85 82 75 69
188 183 185 180 173 177 185 186 175 177 175 174 171 168 174 173 172 171 173 166 164 165 164 152 157 144 134 136 135 140 141 137 141 145 118 86 84 106 97 88 86 84 78
167 171 178 173 172 183 188 175 168 169 166 162 163 173 176 174 172 175 171 167 171 173 170 168 168 152 151 147 141 142 142 136 129 142 139 107 92 107 93 82 78 74 80
166 168 179 188 184 186 180 171 170 168 166 167 169 175 173 169 167 168 163 163 164 166 168 168 169 170 171 165 155 153 142 131 127 131 131 117 111 103 110 115 79 46 51
169 173 190 193 184 176 171 170 168 167 171 169 161 163 162 162 167 164 165 163 161 158 154 157 168 173 176 175 166 161 151 142 138 137 142 136 149 155 171 170 149 89 31
176 184 178 172 173 175 172 166 161 158 158 159 165 167 168 177 168 164 159 156 157 154 151 149 153 156 161 167 168 165 160 157 163 160 165 175 194 189 168 162 155 141 248
183 181 171 170 174 177 171 161 162 163 159 161 169 168 173 179 170 166 163 153 154 156 155 155 158 149 142 137 141 146 161 170 169 168 175 192 190 191 171 173 182 181 201
183 179 174 173 177 173 166 170 174 166 166 170 172 172 169 177 170 165 159 148 146 151 157 163 164 158 156 146 135 128 137 165 182 178 189 197 193 180 175 174 167 146 104
189 193 185 175 174 173 177 181 177 169 171 172 170 168 170 178 167 160 151 145 146 155 158 160 163 169 168 153 142 142 142 184 165 178 186 182 173 169 158 134 135 137 184
201 198 185 177 178 184 188 182 173 171 173 166 163 172 176 180 173 163 152 149 153 158 155 168 175 172 168 160 156 156 167 200 142 116 109 108 122 144 156 161 165 163 173
197 182 180 180 181 179 176 173 164 164 158 162 168 176 180 183 179 171 162 161 169 169 173 182 189 177 174 172 167 172 182 165 139 126 106 86 84 95 115 144 166 173 181
181 175 179 180 179 165 161 168 164 161 161 168 171 177 188 186 180 181 176 175 169 170 185 191 186 177 176 171 167 166 158 141 130 127 122 122 123 127 99 112 129 146 173
175 178 177 174 169 161 162 167 165 166 168 173 176 186 191 186 188 186 182 180 175 172 184 180 172 166 163 163 165 157 147 138 141 146 164 185 186 161 125 100 93 95 79
178 183 179 173 172 166 163 164 169 176 177 178 182 190 189 184 186 182 179 177 172 168 161 156 151 146 142 144 147 148 146 158 162 171 172 167 138 129 134 123 123 101 65
178 180 182 178 178 175 171 175 179 189 187 183 191 187 184 198 202 181 169 172 170 166 143 125 124 134 143 146 146 148 152 154 163 163 161 162 164 160 172 147 140 116 137
179 182 186 182 180 178 174 175 188 186 191 194 190 183 196 197 180 178 179 174 164 155 143 155 167 173 180 182 179 179 181 186 187 179 175 178 183 186 189 163 137 156 181
189 191 189 185 182 182 183 182 187 196 186 194 195 192 193 184 179 181 178 170 164 158 158 177 185 191 193 189 188 189 194 195 185 184 189 189 186 187 183 178 168 169 199
193 194 191 190 186 186 190 190 187 182 183 205 210 198 190 183 181 178 163 146 161 175 186 188 195 196 193 192 194 194 190 180 180 187 189 188 187 189 193 192 190 193 201
193 195 194 189 188 188 188 189 188 186 187 187 180 187 184 172 165 166 158 169 184 194 198 198 195 193 193 193 193 191 187 187 187 189 193 190 189 188 197 200 199 198 197
199 194 188 185 183 184 185 188 189 189 191 192 196 191 167 153 163 175 185 192 195 198 198 198 197 195 194 193 189 186 187 190 190 193 196 195 193 193 198 197 194 195 201
193 188 186 185 189 190 190 194 193 191 194 200 204 191 174 179 188 190 195 201 203 204 201 198 196 195 193 189 187 189 192 197 197 195 194 194 191 194 198 196 195 193 189
182 181 182 190 192 192 194 196 192 193 198 201 199 184 180 182 189 194 199 205 205 203 200 194 194 195 195 192 191 192 197 201 201 198 197 196 194 193 191 191 191 191 189
177 181 185 190 189 186 190 196 196 196 200 201 194 186 187 196 198 200 204 204 199 198 196 193 191 193 197 197 196 195 197 201 201 196 192 192 193 193 191 192 190 189 195
189 186 187 187 184 188 193 200 205 203 200 197 193 194 196 198 200 201 201 198 196 197 194 193 193 195 194 196 200 202 204 202 195 191 186 186 189 191 190 190 194 198 199
199 191 190 194 194 197 202 205 208 207 204 199 198 198 199 200 202 201 196 193 189 191 191 192 197 197 197 197 199 201 201 195 190 188 185 183 185 187 186 189 194 195 197
201 196 192 196 202 201 203 206 210 209 208 208 204 200 200 202 202 199 194 191 192 193 192 196 199 199 199 201 201 199 195 190 188 186 182 180 183 187 185 189 191 192 193
Height
1521 1522 1524 1526 1528 1529 1531 1533 1535 1536 1538 1539 1541 1542 1544 1545 1546 1548 1549 1550 1551 1552 1552 1553 1554 1555 1555 1556 1557 1558 1558 1559 1559 1560 1561 1562 1563 1563 1563 1563 1562 1561 1560
1518 1520 1522 1524 1526 1528 1529 1531 1533 1535 1536 1538 1540 1541 1542 1544 1545 1546 1547 1549 1550 1550 1551 1552 1553 1554 1555 1555 1556 1557 1558 1558 1559 1559 1560 1561 1562 1563 1563 1563 1562 1562 1561
1516 1518 1520 1522 1524 1526 1528 1529 1531 1533 1535 1536 1538 1539 1541 1542 1544 1545 1546 1548 1548 1549 1550 1551 1552 1553 1554 1555 1555 1556 1557 1558 1558 1559 1560 1561 1561 1562 1562 1562 1562 1562 1561
1514 1516 1518 1520 1522 1524 1526 1527 1529 1531 1533 1534 1536 1537 1539 1540 1542 1543 1545 1546 1547 1548 1549 1550 1551 1552 1553 1554 1554 1555 1556 1557 1557 1558 1559 1560 1561 1561 1562 1562 1562 1562 1561
1512 1513 1515 1518 1520 1522 1524 1525 1527 1529 1531 1532 1534 1535 1537 1538 1540 1541 1543 1544 1546 1547 1548 1549 1550 1551 1552 1553 1554 1554 1555 1556 1556 1557 1558 1559 1559 1560 1560 1561 1561 1561 1561
1509 1511 1513 1515 1517 1519 1521 1523 1525 1527 1528 1530 1532 1533 1535 1536 1538 1539 1541 1542 1544 1545 1546 1547 1548 1549 1550 1551 1552 1553 1554 1555 1555 1556 1557 1557 1558 1558 1559 1559 1560 1560 1559
1507 1509 1511 1513 1515 1517 1519 1521 1523 1524 1526 1528 1530 1531 1533 1534 1536 1537 1539 1540 1542 1543 1545 1546 1547 1548 1549 1550 1551 1551 1552 1553 1554 1555 1556 1556 1557 1557 1558 1558 1558 1558 1558
1505 1507 1508 1510 1512 1514 1516 1518 1520 1522 1524 1526 1527 1529 1531 1532 1534 1535 1537 1538 1540 1541 1543 1544 1546 1546 1547 1548 1549 1550 1551 1551 1552 1553 1554 1555 1555 1556 1556 1557 1557 1556 1556
1502 1504 1506 1507 1509 1511 1514 1516 1518 1519 1521 1523 1525 1527 1528 1530 1532 1533 1535 1536 1538 1539 1541 1542 1544 1544 1545 1546 1547 1548 1549 1550 1551 1551 1552 1553 1553 1554 1554 1554 1554 1554 1554
1500 1502 1503 1505 1507 1509 1511 1513 1515 1517 1519 1521 1523 1525 1526 1528 1530 1531 1533 1534 1536 1537 1539 1540 1541 1542 1543 1544 1545 1546 1547 1547 1548 1549 1550 1550 1551 1551 1552 1552 1552 1552 1552
1497 1499 1501 1502 1504 1506 1508 1511 1513 1515 1517 1518 1520 1522 1524 1526 1527 1529 1530 1532 1533 1535 1536 1537 1539 1540 1541 1542 1543 1544 1544 1545 1546 1547 1547 1548 1549 1549 1549 1549 1550 1550 1550
1494 1496 1498 1500 1502 1504 1506 1508 1510 1512 1514 1515 1517 1519 1521 1523 1524 1526 1528 1530 1531 1532 1534 1535 1536 1537 1538 1539 1540 1541 1542 1543 1543 1544 1545 1545 1546 1546 1546 1547 1547 1547 1547
1491 1493 1495 1497 1499 1501 1503 1505 1507 1509 1510 1512 1514 1515 1517 1519 1521 1523 1525 1527 1528 1530 1531 1532 1534 1535 1536 1537 1538 1538 1539 1540 1540 1541 1542 1542 1543 1543 1543 1543 1544 1544 1543
1487 1489 1492 1494 1496 1498 1500 1501 1503 1505 1506 1508 1510 1512 1514 1516 1518 1519 1521 1523 1525 1526 1528 1529 1530 1531 1533 1534 1534 1535 1536 1537 1537 1538 1539 1540 1540 1540 1540 1540 1540 1540 1540
1484 1486 1488 1490 1492 1494 1496 1498 1499 1501 1503 1505 1507 1509 1510 1512 1514 1516 1518 1519 1521 1523 1524 1526 1527 1528 1529 1530 1531 1532 1533 1533 1534 1535 1536 1536 1537 1537 1537 1537 1537 1537 1537
1479 1481 1484 1486 1488 1490 1492 1494 1496 1498 1500 1502 1504 1506 1508 1510 1511 1513 1515 1516 1518 1520 1521 1521 1523 1524 1525 1526 1527 1528 1529 1530 1531 1531 1532 1533 1533 1533 1534 1534 1534 1534 1533
1475 1477 1480 1482 1483 1485 1487 1489 1491 1494 1496 1499 1500 1502 1504 1506 1508 1509 1511 1512 1514 1515 1516 1517 1519 1520 1521 1522 1523 1524 1525 1526 1527 1528 1528 1529 1529 1530 1530 1530 1530 1530 1530
1471 1473 1475 1477 1479 1481 1483 1486 1488 1490 1491 1493 1496 1498 1500 1502 1504 1505 1507 1508 1509 1510 1512 1513 1514 1516 1517 1518 1519 1520 1521 1522 1523 1524 1524 1525 1525 1526 1526 1526 1526 1526 1526
1467 1469 1471 1473 1475 1477 1480 1482 1484 1485 1487 1489 1491 1493 1495 1497 1499 1501 1502 1503 1504 1505 1507 1508 1510 1511 1513 1514 1515 1516 1517 1518 1518 1519 1520 1521 1521 1522 1522 1522 1522 1523 1523
1462 1464 1466 1468 1471 1473 1475 1477 1479 1480 1482 1484 1486 1488 1490 1492 1494 1495 1496 1498 1499 1501 1502 1504 1505 1507 1508 1509 1510 1511 1512 1513 1514 1514 1515 1516 1517 1517 1518 1518 1518 1518 1518
1458 1459 1462 1464 1466 1468 1470 1472 1473 1475 1477 1479 1481 1483 1485 1487 1488 1490 1491 1493 1494 1496 1497 1499 1500 1502 1503 1504 1505 1506 1507 1508 1509 1510 1511 1511 1512 1513 1513 1514 1514 1514 1514
1453 1455 1457 1459 1461 1463 1465 1467 1468 1470 1472 1474 1476 1478 1480 1482 1483 1485 1486 1488 1489 1491 1493 1494 1495 1497 1498 1499 1500 1501 1502 1503 1504 1505 1506 1507 1508 1508 1509 1509 1510 1510 1510
1450 1451 1453 1454 1456 1458 1460 1462 1464 1465 1467 1469 1470 1472 1474 1476 1478 1479 1481 1483 1484 1486 1487 1488 1490 1491 1493 1494 1495 1496 1497 1498 1500 1501 1501 1502 1503 1503 1504 1504 1505 1505 1505
1446 1447 1448 1449 1451 1453 1455 1456 1458 1460 1462 1463 1465 1467 1468 1470 1472 1474 1476 1477 1479 1481 1482 1483 1485 1486 1488 1489 1490 1491 1493 1494 1495 1496 1497 1497 1498 1498 1499 1499 1500 1500 1501
1442 1443 1444 1445 1446 1448 1450 1451 1453 1455 1456 1458 1460 1461 1463 1465 1467 1468 1470 1472 1474 1475 1477 1478 1479 1481 1482 1484 1485 1486 1488 1489 1490 1491 1492 1492 1493 1494 1494 1495 1495 1496 1496
1438 1439 1439 1441 1441 1443 1444 1446 1448 1449 1451 1453 1455 1456 1458 1459 1461 1463 1465 1466 1468 1470 1471 1473 1474 1475 1477 1479 1480 1481 1483 1484 1485 1486 1487 1487 1488 1489 1489 1490 1491 1491 1492